Location: *
(50.2903°S, 172.5375°W)
Time: 04:48:27
(UTC+00:00)

Cosmos 1805 - Pass Details

Date: 17 November 2019
Orbit: 525 x 532 km, 82.5° (Epoch: 14 December)

Event Time Altitude Azimuth Distance (km) Brightness Sun altitude
Exits shadow 12:51:56 30° 292° (WNW) 982 4.2 -17.5°
Maximum altitude 12:53:06 37° 254° (WSW) 846 4.2 -17.4°
Drops below altitude 10° 12:56:50 10° 184° (S) 1,812 6.9 -17.2°
Sets 12:59:07 0° 176° (S) 2,711 8.2 -17.0°
